Regional Weather Roundup
Issued by NWS Grand Forks, ND

Home | Current Version | Previous Version | Graphics & Text | Print | Product List | Glossary On
Versions: 1 2 3 4 5 6 7 8 9 10 11 12 13 14 15 16 17 18 19 20 21 22 23 24 25 26 27 28 29 30 31 32 33 34 35 36 37 38 39 40 41 42 43 44 45 46 47 48 49 50
000
ASUS43 KFGF 230110
RWRFGF
PRAIRIE TO PINES  WEATHER ROUNDUP
NATIONAL WEATHER SERVICE EASTERN NORTH DAKOTA/GRAND FORKS ND
800 PM CDT FRI MAY 22 2015

 **SATELLITE DATA USED TO AUGMENT SKY COVER AT AUTOMATED STATIONS**
 *****  WEATHER ACROSS EASTERN NORTH DAKOTA  *****

CITY           SKY/WX    TMP DP  RH WIND       PRES   REMARKS
GRAND FORKS    PTCLDY    72  42  34 S8        30.10S
GRAND FRKS AFB CLEAR     73  41  32 S6        30.10F
GRAND FRKS NWS   N/A     72 N/A N/A S13         N/A
DEVILS LAKE    SUNNY     72  34  25 S10       30.10F
FARGO          CLEAR     72  39  30 SE7       30.12S
WAHPETON ARPT  PTCLDY    70  30  23 SE8       30.13S
$$

 ***** WEATHER ACROSS CENTRAL AND WESTERN NORTH DAKOTA  *****

CITY           SKY/WX    TMP DP  RH WIND       PRES   REMARKS
BISMARCK       MOSUNNY   71  38  29 S13       30.07S
MINOT          MOSUNNY   73  32  22 S9        30.06S
JAMESTOWN      SUNNY     68  39  34 SE8       30.10S
MINOT AFB      SUNNY     76  34  21 S12       30.05S
GARRISON         N/A     71  37  28 SE10      30.07S
WILLISTON      MOSUNNY   73  34  23 SE13      30.03S
DICKINSON      MOSUNNY   66  33  29 SE17G28   30.04S
HETTINGER      PTSUNNY   64  35  34 SE20      30.06S
$$

 *****  OTHER AIRPORT OBSERVATIONS IN OUR AREA  *****

CITY           SKY/WX    TMP DP  RH WIND       PRES   REMARKS
WALHALLA       FAIR      75  36  23 SW9       30.08S
GRAFTON AIRPOR FAIR      73  45  35 S8        30.10S
VALLEY CITY AR FAIR      70  32  24 S9        30.12S
CANDO          FAIR      72  32  23 S13       30.10F
CAVALIER APRT  FAIR      75  39  27 SW7       30.08S
GWINNER        NOT AVBL
ROLLA          FAIR      72  28  20 S13G18    30.11S
 ***** THE ABOVE OBSERVATIONS ARE NON NWS ARE NOT QUALITY
       CONTROLLED AND MAY MIS-REPORT RAIN FOR SNOW...
$$

  *****  WEATHER ACROSS NORTHERN MINNESOTA  *****

CITY           SKY/WX    TMP DP  RH WIND       PRES   REMARKS
FLAG ISLAND    NOT AVBL
WARROAD        CLEAR     72  45  37 SW8       30.09S
ROSEAU         CLEAR     72  43  35 SW8       30.09S
HALLOCK        PTCLDY    73  41  31 SW9       30.08S
THF RVR FALLS  CLEAR     73  36  25 SW8       30.12F
BAUDETTE       CLEAR     72  38  29 W9        30.09S
WASKISH        CLEAR     66  45  45 CALM      30.11F
CROOKSTON      CLEAR     73  39  29 SW7       30.12S
STEPHEN NDAWN    N/A     73  41  31 SW5         N/A
GREENBUSH NDAW   N/A     70  45  40 SW7         N/A
$$
  *****  WEATHER ACROSS CENTRAL AND WEST MINNESOTA  *****

CITY           SKY/WX    TMP DP  RH WIND       PRES   REMARKS
FOSSTON        CLEAR     72  36  26 CALM      30.14S
BEMIDJI        CLEAR     71  37  28 W3        30.13S
PARK RAPIDS    CLEAR     70  38  31 SW7       30.14S
ELBOW LAKE     FAIR      69  34  28 SE7       30.14F
WADENA         CLEAR     68  39  34 S6        30.16S
DETROIT LAKES  CLEAR     68  37  32 S6        30.16F
MOORHEAD       CLEAR     73  37  27 SE5       30.13S
FERGUS FALLS   CLEAR     72  36  26 SE6       30.14S
MORRIS MN      PTCLDY    70  36  28 SE5       30.13F
STAPLES        CLEAR     66  36  32 S6        30.16S
$$
  *****  WEATHER ELSEWHERE ACROSS MINNESOTA  *****

CITY           SKY/WX    TMP DP  RH WIND       PRES   REMARKS
DULUTH         CLEAR     67  36  31 S6        30.15F
INTRNTL FALLS  PTCLDY    71  37  28 SW6       30.09F
ELY            CLEAR     70  30  23 W5        30.12F
CLOQUET        CLEAR     70  27  19 CALM      30.16S
WHEATON        PTCLDY    68  37  32 E5        30.14F
BRAINERD       CLEAR     68  38  33 S6        30.16S
HIBBING        CLEAR     70  32  24 SW6       30.14S
ALEXANDRIA     CLEAR     68  34  28 S7        30.17S
SAINT CLOUD    CLEAR     68  40  35 CALM      30.17S
MINNEAPOLIS    MOCLDY    73  32  22 VRB5      30.18S
$$

  *****  WEATHER ACROSS SOUTH DAKOTA  *****

CITY           SKY/WX    TMP DP  RH WIND       PRES   REMARKS
SIOUX FALLS    CLOUDY    61  42  49 SW16G26   30.18R
BROOKINGS      CLOUDY    66  39  37 SW16G24   30.15R
WATERTOWN      CLOUDY    68  40  35 S6        30.12S
HURON          CLOUDY    63  42  46 SW23      30.15R
SISSETON         N/A     69  35  28 E7        30.11F
ABERDEEN       CLOUDY    73  36  25 S13       30.09S
MITCHELL       CLOUDY    60  43  53 SW14G23   30.18R
PIERRE         CLOUDY    61  43  51 S20       30.11R
MOBRIDGE       PTSUNNY   68  39  34 S13       30.07R
RAPID CITY     CLOUDY    54  39  57 S14       30.07S
$$

  *****  SOME WEATHER IN NEARBY STATES *****

CITY           SKY/WX    TMP DP  RH WIND       PRES   REMARKS
GLASGOW MT     CLOUDY    71  39  31 SE16      29.96S
GREAT FALLS MT PTSUNNY   63  46  54 E14       29.92S
CHEYENNE WY    CLOUDY    47  42  83 SE9       30.02R
SCOTTSBLUFF NE CLOUDY    48  46  93 SE20      30.04S
OMAHA NE       CLOUDY    65  43  44 SE8       30.17F
DES MOINES IA  CLOUDY    68  44  42 SW14      30.20R
DAVENPORT IA   CLOUDY    72  36  26 CALM      30.20S
CHICAGO IL     CLOUDY    55  27  34 E8        30.26R
EAU CLAIRE WI  PTCLDY    69  32  25 CALM      30.19S
LA CROSSE WI   CLOUDY    71  38  29 CALM      30.19R
$$

  *****  SOME NATIONAL WEATHER *****

CITY           SKY/WX    TMP DP  RH WIND       PRES   REMARKS
LA GUARDIA NY  MOCLDY    67  42  40 NW13      30.02R
RALEIGH NC     PTCLDY    59  49  69 CALM      30.23R
ATLANTA GA     PTCLDY    74  49  41 CALM      30.22R
NEW ORLEANS LA PTCLDY    79  66  64 SE3       30.14R
OKLAHOMA CITY  CLOUDY    55  53  93 SE9       30.13S
ALBUQUERQUE NM MOSUNNY   73  34  23 S28G38    29.90F
SALT LAKE CITY CLOUDY    62  39  42 E7        29.86S
LOS ANGELES CA PTSUNNY   62  55  77 SW13      30.03R
BOISE ID       CLOUDY    71  46  40 NE8       29.80F
SEATTLE WA     PTSUNNY   60  50  69 S6        30.03R
$$

*** WEATHER ACROSS MANITOBA...SASKATCHEWAN AND ONTARIO ***
                ***ONTARIO***

CITY           SKY/WX    TMP DP  RH WIND       PRES   REMARKS
GERALDTON      CLEAR     55  23  28 SW3       30.10F
THUNDER BAY    CLEAR     52  25  35 S8        30.15F
SIOUX LOOKOUT  PTCLDY    68  39  34 SW6       30.02F
TORONTO        CLEAR     46  21  36 N15G23    30.25R
BIG TROUT LK   MOCLDY    55  30  38 S2        29.91F
PICKLE LAKE    MOCLDY    64  34  32 S6        29.97F
DRYDEN         CLEAR     70  37  30 SW10      30.03F
KENORA         MOCLDY    70  39  32 SW10      30.05S
$$
                *** MANITOBA***

CITY           SKY/WX    TMP DP  RH WIND       PRES   REMARKS
BRANDON        PTSUNNY   75  34  22 S14       30.06F
DAUPHIN        SUNNY     73  34  23 W12G17    30.01S
ISLAND LAKE    MOSUNNY   66  36  32 N10       29.90R
PILOT MOUND      N/A     72  32  23 S14         N/A
THE PAS        PTSUNNY   77  30  18 N10       29.91S
THOMPSON       LGT RAIN  66  43  42 NE9       29.90F
WINNIPEG       PTSUNNY   75  37  25 SW9       30.05S
LYNN LAKE      PTSUNNY   68  39  34 NE12G17   29.95R
CHURCHILL      CLOUDY    34  32  93 N15       30.06R WCI  24
GILLAM         PTSUNNY   45  37  76 NE20      29.94R
$$
                ***SASKATCHEWAN***

CITY           SKY/WX    TMP DP  RH WIND       PRES   REMARKS
ESTEVAN        MOSUNNY   73  34  23 S10       30.05F
KINDERSLEY     MOSUNNY   77  23  13 SE8       30.00R
LLOYDMINSTER   NOT AVBL
PRINCE ALBERT  MOSUNNY   77  32  19 W8        29.97F
REGINA         MOSUNNY   70  39  32 SE7       30.03S
YORKTON        SUNNY     75  30  19 S10       30.03F
N. BATTLEFORD  SUNNY     79  25  13 SW5       30.00F
LA RONGE       PTSUNNY   77  27  15 NW9       29.93R
SASKATOON      MOSUNNY   77  32  19 SW5       30.02S
SWIFT CURRENT  SUNNY     72  28  20 E14G20    30.00F
$$
NOTE: THESE ARE AUTOMATED STATIONS WITH LIMITED QUALITY CONTROL
      "FAIR" INDICATES FEW OR NO CLOUDS BELOW 12,000 FEET WITH NO
      SIGNIFICANT WEATHER AND/OR OBSTRUCTIONS TO VISIBILITY.
      SKY/WX - SKY CONDITION AND SIGNIFICANT WEATHER.
      TMP - AIR TEMPERATURE.    DP   - DEWPOINT TEMPERATURE.
      RH  - RELATIVE HUMIDITY.  PRES - PRESSURE.
      HX  - HEAT INDEX.         WCI  - WIND CHILL INDEX.
$



USA.gov is the U.S. government's official web portal to all federal, state and local government web resources and services.